Location: Prague
(50.0830°N, 14.4670°E)
Time: 11:00:44
(UTC+01:00)

AO-7 - Pass Details

Date: 12 December 2021
Orbit: 1440 x 1459 km, 101.9° (Epoch: 29 January)

Event Time Altitude Azimuth Distance (km) Brightness Sun altitude
Rises 06:07:04 0° 18° (NNE) 4,551 ? -15.8°
Reaches altitude 10° 06:10:01 10° 12° (NNE) 3,572 ? -15.3°
Maximum altitude 06:17:32 40° 307° (NW) 2,021 ? -14.2°
Drops below altitude 10° 06:25:04 10° 242° (WSW) 3,569 ? -13.0°
Sets 06:28:02 0° 235° (SW) 4,547 ? -12.6°
